Location: Houhaj�rvi
(61.2833°N, 23.0000°E)
Time: 08:27:52
(UTC+00:00)

CZ-2C R/B - Pass Details

Date: 27 February 2020
Orbit: 784 x 871 km, 98.3° (Epoch: 09 April)

Event Time Altitude Azimuth Distance (km) Brightness Sun altitude
Rises 18:49:03 0° 17° (NNE) 3,455 6.0 -22.3°
Reaches altitude 10° 18:51:31 10° 22° (NNE) 2,504 5.2 -22.6°
Maximum altitude 18:56:59 54° 100° (E) 1,018 2.7 -23.2°
Enters shadow 18:57:07 54° 106° (ESE) 1,019 2.7 -23.2°
